Meteo Giornale » Osservazioni meteo Repubblica Ceca » Plzen Line

ore: 18:00 - Osservazioni Meteo Plzen Line
Lat. 49° 41' N Lon. 13° 16' E Alt. 362 metri s.l.m.

poco_nuvoloso

23 °C

Poco Nuvoloso

Temp. 24 Ore

14 °C

23 °C

Ovest

11.1 Km/h

Dew point 9 °C

Umidità 40 %

Visibilità  10 Km

Il sole sorge alle ore 06:22

Il sole tramonta alle ore 19:51

Data e Ora Cielo e Fenomeni T °C DP °C Um. % Pres. hPa Vis. km Vento km/h
Oggi h: 18:00 poco_nuvoloso Poco Nuvoloso 23 9 40 1020 10 O 11.1
Oggi h: 17:00 poco_nuvoloso Poco Nuvoloso 23 9 40 1020 10 O 9.3
Oggi h: 16:00 poco_nuvoloso Poco Nuvoloso 23 10 43 1021 10 O 11.1
Oggi h: 15:00 molto_nuvoloso Molto Nuvoloso 22 10 46 1021 10 O/SO 13
Oggi h: 14:00 molto_nuvoloso Molto Nuvoloso 22 9 43 1021 10 O 14.8
Oggi h: 13:00 molto_nuvoloso Molto Nuvoloso 21 10 49 1021 10 O/NO 9.3
Oggi h: 12:00 sereno Sereno 20 10 52 1022 10 O 16.7
Oggi h: 11:00 poco_nuvoloso Poco Nuvoloso 19 11 59 1022 10 O 14.8
Oggi h: 10:00 nuvoloso Nuvoloso 18 11 63 1022 10 N 11.1
Oggi h: 09:00 nuvoloso Nuvoloso 17 12 72 1021 10 O/SO 13
Oggi h: 08:00 sereno Sereno 16 12 77 1021 10 O/SO 13
Oggi h: 07:00 poco_nuvoloso Poco Nuvoloso 15 12 82 1021 10 O/SO 11.1
Oggi h: 06:00 nuvoloso Nuvoloso 15 12 82 1020 10 O/SO 11.1
Oggi h: 05:00 sereno Sereno 14 12 87 1020 10 SO 7.4
Oggi h: 04:00 sereno Sereno 15 12 82 1020 10 SO 13
Oggi h: 03:00 poco_nuvoloso Poco Nuvoloso 16 12 77 1020 10 SO 13
Oggi h: 02:00 nuvoloso Nuvoloso 16 12 77 1019 10 O/SO 11.1
Oggi h: 01:00 nuvoloso Nuvoloso 17 11 67 1019 10 O/SO 11.1
Oggi h: 00:00 sereno Sereno 18 11 63 1019 10 O/SO 9.3
Ieri h: 23:00 sereno Sereno 19 11 59 1019 10 O 9.3
Ieri h: 22:00 nuvoloso Nuvoloso 18 12 67 1017 10 N 3.7
Ieri h: 21:00 nuvoloso Nuvoloso 20 11 56 1017 10 N 5.5
Ieri h: 20:00 sereno Sereno 21 11 52 1016 10 O/SO 9.3
Ieri h: 19:00 poco_nuvoloso Poco Nuvoloso 23 11 46 1016 10 O 13